contact:dominique.lefevre@mio.osupytheas.fr, maurice.libes@osupytheas.fr, didier.mallarino@osupytheas.fr
Project:EMSO http://www.emso-fr.org/EMSO-France
Depth: 2436.0 m
Title:EMSO Ligure Ouest : Data MII capteur AQUADOPP
Date,Latitude,Longitude,X_East,Y_North,Z_Up,Amplitude_X,Amplitude_Y,Amplitude_Z,Batterie,SoundSpeed,Heading,Pitch,Roll,Pressure,TIS,Speed,Direction
, degrees North, degrees East, m.s-1, m.s-1,m.s-1, 1, 1, 1, Volt, m.s-1, degree, degree, degree, dbar, degree_C, m.s-1, degree
2024-01-05T00:04:03,42.805,6.029,0.031,-0.029,-0.002,108.0,107.0,104.0,13.4,1505.2,359.1,-0.7,1.8,2471.603,13.28,0.042,133.1
2024-01-05T00:07:03,42.805,6.029,0.04,-0.045,-0.007,108.0,107.0,105.0,13.4,1505.2,349.7,-0.7,1.8,2471.615,13.29,0.06,138.4
2024-01-05T00:10:03,42.805,6.029,0.038,-0.051,-0.009,107.0,107.0,105.0,13.4,1505.2,345.0,-0.8,1.8,2471.607,13.29,0.063,143.3
2024-01-05T00:13:03,42.805,6.029,0.033,-0.049,-0.027,108.0,107.0,104.0,13.4,1505.2,345.9,-0.8,1.8,2471.647,13.29,0.059,146.0
2024-01-05T00:16:03,42.805,6.029,0.024,-0.035,-0.021,108.0,107.0,104.0,13.4,1505.2,3.9,-0.8,1.8,2471.576,13.29,0.042,145.6
2024-01-05T00:19:03,42.805,6.029,0.037,-0.051,-0.041,108.0,106.0,105.0,13.3,1505.2,346.4,-0.8,1.8,2471.546,13.29,0.063,144.0
2024-01-05T00:22:03,42.805,6.029,0.048,-0.038,-0.049,108.0,107.0,104.0,13.4,1505.2,342.0,-0.8,1.8,2471.606,13.29,0.061,128.4
2024-01-05T00:25:03,42.805,6.029,0.046,-0.055,-0.02,107.0,106.0,105.0,13.3,1505.2,347.9,-0.8,1.8,2471.573,13.29,0.071,140.1
2024-01-05T00:28:03,42.805,6.029,0.023,-0.056,-0.01,108.0,106.0,105.0,13.3,1505.2,3.8,-0.7,1.8,2471.562,13.29,0.06,157.7
2024-01-05T00:31:03,42.805,6.029,0.015,-0.054,-0.013,107.0,108.0,105.0,13.4,1505.2,357.9,-0.7,1.8,2471.595,13.29,0.056,164.5
2024-01-05T00:34:03,42.805,6.029,0.012,-0.034,-0.03,107.0,106.0,105.0,13.3,1505.2,351.1,-0.8,1.8,2471.579,13.29,0.036,160.6
2024-01-05T00:37:03,42.805,6.029,0.021,-0.034,-0.014,107.0,107.0,104.0,13.4,1505.2,347.1,-0.8,1.8,2471.575,13.29,0.039,148.3
2024-01-05T00:40:03,42.805,6.029,0.012,-0.033,-0.012,107.0,107.0,105.0,13.3,1505.2,358.5,-0.7,1.8,2471.567,13.29,0.035,160.0
2024-01-05T00:43:03,42.805,6.029,0.025,-0.037,-0.022,108.0,107.0,104.0,13.4,1505.2,348.8,-0.7,1.8,2471.586,13.29,0.044,146.0
2024-01-05T00:46:03,42.805,6.029,0.028,-0.035,0.014,107.0,106.0,105.0,13.3,1505.2,347.4,-0.7,1.8,2471.59,13.29,0.044,141.3
2024-01-05T00:49:03,42.805,6.029,0.003,-0.064,-0.025,107.0,108.0,105.0,13.4,1505.2,5.3,-0.8,1.8,2471.591,13.29,0.064,177.3
2024-01-05T00:52:03,42.805,6.029,0.018,-0.04,0.005,108.0,106.0,104.0,13.3,1505.2,354.2,-0.7,1.8,2471.584,13.29,0.043,155.8
2024-01-05T00:55:03,42.805,6.029,0.054,-0.029,-0.015,107.0,107.0,105.0,13.4,1505.2,355.1,-0.8,1.8,2471.575,13.29,0.061,118.2
2024-01-05T00:58:03,42.805,6.029,0.021,-0.054,0.011,107.0,107.0,105.0,13.4,1505.2,357.6,-0.7,1.8,2471.555,13.29,0.057,158.8
2024-01-05T01:04:03,42.805,6.029,0.041,-0.05,-0.025,109.0,107.0,105.0,13.4,1505.2,355.9,-0.7,1.8,2471.614,13.28,0.064,140.7
2024-01-05T01:07:03,42.805,6.029,0.008,-0.034,-0.033,109.0,107.0,105.0,13.4,1505.2,3.7,-0.7,1.8,2471.635,13.29,0.034,166.8
2024-01-05T01:10:03,42.805,6.029,0.033,-0.033,-0.01,108.0,107.0,104.0,13.4,1505.2,344.9,-0.7,1.8,2471.636,13.29,0.046,135.0
2024-01-05T01:13:03,42.805,6.029,0.026,-0.039,-0.017,107.0,107.0,105.0,13.4,1505.2,356.8,-0.8,1.8,2471.615,13.29,0.046,146.3
2024-01-05T01:16:03,42.805,6.029,0.026,-0.024,-0.019,109.0,107.0,104.0,13.4,1505.2,348.8,-0.8,1.8,2471.568,13.29,0.035,132.7
2024-01-05T01:19:03,42.805,6.029,0.019,-0.026,0.012,107.0,107.0,105.0,13.4,1505.2,352.1,-0.8,1.8,2471.594,13.29,0.032,143.8
2024-01-05T01:22:03,42.805,6.029,0.033,-0.034,-0.013,107.0,107.0,106.0,13.4,1505.2,341.3,-0.8,1.8,2471.593,13.29,0.047,135.9
2024-01-05T01:25:03,42.805,6.029,-0.001,-0.014,-0.043,108.0,108.0,105.0,13.3,1505.2,348.2,-0.8,1.8,2471.602,13.29,0.014,184.1
2024-01-05T01:28:03,42.805,6.029,0.023,-0.039,0.003,107.0,106.0,104.0,13.3,1505.2,0.7,-0.8,1.8,2471.622,13.29,0.045,149.5
2024-01-05T01:31:03,42.805,6.029,0.025,-0.032,-0.02,107.0,106.0,104.0,13.4,1505.2,351.0,-0.8,1.8,2471.589,13.29,0.04,142.0
2024-01-05T01:34:03,42.805,6.029,0.012,-0.052,0.011,108.0,107.0,105.0,13.4,1505.2,1.5,-0.8,1.8,2471.607,13.29,0.053,167.0
2024-01-05T01:37:03,42.805,6.029,0.031,-0.034,-0.01,108.0,107.0,104.0,13.4,1505.2,348.2,-0.8,1.8,2471.563,13.29,0.046,137.6
2024-01-05T01:40:03,42.805,6.029,0.026,-0.04,0.005,107.0,107.0,104.0,13.3,1505.2,353.4,-0.8,1.8,2471.567,13.29,0.047,147.0
2024-01-05T01:43:03,42.805,6.029,0.008,-0.052,-0.034,107.0,107.0,105.0,13.4,1505.2,350.4,-0.8,1.8,2471.563,13.29,0.052,171.3
2024-01-05T01:46:03,42.805,6.029,0.022,-0.038,-0.028,108.0,107.0,105.0,13.4,1505.2,2.8,-0.8,1.8,2471.596,13.29,0.043,149.9
2024-01-05T01:49:03,42.805,6.029,0.022,-0.027,0.01,108.0,106.0,105.0,13.3,1505.2,342.5,-0.8,1.8,2471.593,13.29,0.034,140.8
2024-01-05T01:52:03,42.805,6.029,0.019,-0.045,0.012,109.0,107.0,104.0,13.4,1505.2,350.2,-0.8,1.8,2471.579,13.29,0.048,157.1
2024-01-05T01:55:03,42.805,6.029,0.021,-0.041,-0.03,106.0,108.0,105.0,13.4,1505.2,0.0,-0.8,1.8,2471.558,13.29,0.046,152.9
2024-01-05T01:58:03,42.805,6.029,0.004,-0.043,-0.019,107.0,106.0,105.0,13.4,1505.2,0.0,-0.7,1.8,2471.583,13.29,0.043,174.7
2024-01-05T02:04:03,42.805,6.029,-0.002,-0.04,0.007,108.0,106.0,104.0,13.4,1505.2,356.2,-0.7,1.8,2471.646,13.28,0.04,182.9
2024-01-05T02:07:03,42.805,6.029,0.038,-0.056,0.003,107.0,107.0,104.0,13.4,1505.2,355.1,-0.8,1.8,2471.59,13.29,0.067,145.8
2024-01-05T02:10:03,42.805,6.029,0.018,-0.051,-0.023,108.0,105.0,104.0,13.4,1505.2,4.3,-0.8,1.8,2471.589,13.29,0.054,160.6
2024-01-05T02:13:03,42.805,6.029,0.025,-0.034,-0.009,108.0,107.0,105.0,13.4,1505.2,349.8,-0.8,1.8,2471.627,13.29,0.042,143.7
2024-01-05T02:16:03,42.805,6.029,0.036,-0.036,-0.026,107.0,107.0,105.0,13.4,1505.2,351.5,-0.7,1.8,2471.587,13.29,0.05,135.0
2024-01-05T02:19:03,42.805,6.029,0.019,-0.018,-0.01,107.0,107.0,105.0,13.3,1505.2,356.8,-0.7,1.8,2471.627,13.29,0.026,133.5
2024-01-05T02:22:03,42.805,6.029,0.028,-0.029,-0.018,107.0,107.0,104.0,13.4,1505.2,348.5,-0.7,1.8,2471.612,13.29,0.04,136.0
2024-01-05T02:25:03,42.805,6.029,0.017,-0.05,-0.01,107.0,107.0,104.0,13.4,1505.2,3.0,-0.7,1.8,2471.546,13.29,0.052,161.2
2024-01-05T02:28:03,42.805,6.029,0.017,-0.034,-0.005,108.0,107.0,104.0,13.4,1505.2,354.8,-0.8,1.8,2471.602,13.29,0.038,153.4
2024-01-05T02:31:03,42.805,6.029,0.017,-0.057,-0.037,107.0,107.0,104.0,13.4,1505.2,357.7,-0.8,1.8,2471.603,13.29,0.059,163.4
2024-01-05T02:34:03,42.805,6.029,0.034,-0.061,-0.006,107.0,106.0,105.0,13.4,1505.2,348.2,-0.8,1.8,2471.584,13.29,0.069,150.9
2024-01-05T02:37:03,42.805,6.029,0.025,-0.031,-0.012,108.0,105.0,105.0,13.3,1505.2,3.2,-0.8,1.8,2471.55,13.29,0.039,141.1
2024-01-05T02:40:03,42.805,6.029,0.036,-0.047,-0.023,108.0,106.0,105.0,13.4,1505.2,342.9,-0.8,1.8,2471.579,13.29,0.059,142.5
2024-01-05T02:43:03,42.805,6.029,0.025,-0.046,-0.024,108.0,107.0,104.0,13.3,1505.2,346.5,-0.8,1.8,2471.538,13.29,0.052,151.5
2024-01-05T02:46:03,42.805,6.029,0.033,-0.034,-0.016,107.0,106.0,104.0,13.4,1505.2,350.6,-0.8,1.8,2471.591,13.29,0.047,135.9
2024-01-05T02:49:03,42.805,6.029,0.0,-0.047,-0.018,107.0,106.0,105.0,13.4,1505.2,0.7,-0.8,1.8,2471.569,13.29,0.047,180.0
2024-01-05T02:52:03,42.805,6.029,0.055,-0.041,-0.009,108.0,106.0,104.0,13.4,1505.2,341.8,-0.8,1.8,2471.546,13.29,0.068,126.7
2024-01-05T02:55:03,42.805,6.029,0.033,-0.044,-0.01,107.0,106.0,105.0,13.3,1505.2,356.8,-0.8,1.8,2471.562,13.29,0.055,143.1
2024-01-05T02:58:03,42.805,6.029,0.037,-0.046,-0.006,108.0,106.0,105.0,13.3,1505.2,350.0,-0.8,1.8,2471.587,13.29,0.059,141.2
2024-01-05T03:04:03,42.805,6.029,-0.004,-0.036,-0.012,107.0,105.0,105.0,13.4,1505.2,352.3,-0.8,1.8,2471.619,13.28,0.036,186.3
2024-01-05T03:07:03,42.805,6.029,0.016,-0.029,-0.007,107.0,107.0,105.0,13.4,1505.2,350.6,-0.7,1.8,2471.568,13.29,0.033,151.1
2024-01-05T03:10:03,42.805,6.029,0.019,-0.05,-0.006,110.0,107.0,104.0,13.4,1505.2,3.9,-0.8,1.8,2471.593,13.29,0.053,159.2
2024-01-05T03:13:03,42.805,6.029,0.026,-0.038,-0.005,107.0,107.0,105.0,13.4,1505.2,346.6,-0.7,1.8,2471.558,13.29,0.046,145.6
2024-01-05T03:16:03,42.805,6.029,0.024,-0.03,-0.025,108.0,106.0,104.0,13.4,1505.2,340.8,-0.7,1.8,2471.592,13.29,0.038,141.3
2024-01-05T03:19:03,42.805,6.029,0.021,-0.046,-0.045,108.0,107.0,105.0,13.4,1505.2,349.1,-0.8,1.8,2471.597,13.29,0.05,155.5
2024-01-05T03:22:03,42.805,6.029,0.026,-0.061,-0.06,108.0,107.0,104.0,13.4,1505.2,350.3,-0.8,1.8,2471.568,13.29,0.066,156.9
2024-01-05T03:25:03,42.805,6.029,0.031,-0.038,-0.007,107.0,107.0,103.0,13.4,1505.2,350.2,-0.8,1.8,2471.561,13.29,0.049,140.8
2024-01-05T03:28:03,42.805,6.029,0.018,-0.041,0.001,107.0,106.0,105.0,13.4,1505.2,2.1,-0.8,1.8,2471.555,13.29,0.044,156.3
2024-01-05T03:31:03,42.805,6.029,0.004,-0.02,-0.014,107.0,107.0,104.0,13.4,1505.2,345.9,-0.8,1.8,2471.57,13.29,0.02,168.7
2024-01-05T03:34:03,42.805,6.029,0.009,-0.062,-0.05,107.0,107.0,104.0,13.4,1505.2,354.1,-0.7,1.8,2471.548,13.29,0.062,171.7
2024-01-05T03:37:03,42.805,6.029,0.012,-0.042,0.006,108.0,106.0,104.0,13.3,1505.2,353.6,-0.8,1.8,2471.583,13.29,0.043,164.1
2024-01-05T03:40:03,42.805,6.029,0.029,-0.039,-0.02,107.0,106.0,105.0,13.4,1505.2,346.6,-0.8,1.8,2471.592,13.29,0.048,143.4
2024-01-05T03:43:03,42.805,6.029,0.025,-0.034,-0.007,107.0,107.0,104.0,13.3,1505.2,354.2,-0.8,1.8,2471.567,13.29,0.042,143.7
2024-01-05T03:46:03,42.805,6.029,0.01,-0.045,-0.002,108.0,106.0,104.0,13.4,1505.2,355.1,-0.8,1.8,2471.571,13.29,0.046,167.5
2024-01-05T03:49:03,42.805,6.029,0.041,-0.038,0.016,108.0,106.0,106.0,13.3,1505.2,348.6,-0.8,1.8,2471.572,13.29,0.055,132.8
2024-01-05T03:52:03,42.805,6.029,0.002,-0.048,-0.003,107.0,108.0,104.0,13.4,1505.2,357.5,-0.8,1.8,2471.581,13.29,0.048,177.6
2024-01-05T03:55:03,42.805,6.029,0.013,-0.035,-0.029,108.0,107.0,105.0,13.3,1505.2,349.8,-0.7,1.8,2471.558,13.29,0.037,159.6
2024-01-05T03:58:03,42.805,6.029,0.012,-0.029,-0.031,108.0,107.0,104.0,13.3,1505.2,2.2,-0.7,1.8,2471.607,13.29,0.031,157.5
2024-01-05T04:04:03,42.805,6.029,0.031,-0.039,-0.011,108.0,106.0,105.0,13.4,1505.2,358.4,-0.8,1.8,2471.621,13.29,0.049,141.5
2024-01-05T04:07:03,42.805,6.029,0.045,-0.018,-0.008,108.0,106.0,105.0,13.4,1505.2,344.0,-0.8,1.8,2471.625,13.29,0.048,111.8
2024-01-05T04:10:03,42.805,6.029,-0.006,-0.033,-0.02,107.0,107.0,104.0,13.4,1505.2,358.4,-0.8,1.8,2471.654,13.29,0.033,190.3
2024-01-05T04:13:03,42.805,6.029,-0.01,-0.016,-0.025,106.0,108.0,104.0,13.4,1505.2,350.6,-0.8,1.8,2471.628,13.29,0.018,212.0
2024-01-05T04:16:03,42.805,6.029,0.047,-0.046,-0.001,108.0,106.0,105.0,13.4,1505.2,350.7,-0.8,1.9,2471.578,13.29,0.065,134.4
2024-01-05T04:19:03,42.805,6.029,0.017,-0.051,-0.025,106.0,106.0,104.0,13.4,1505.2,358.5,-0.7,1.8,2471.591,13.29,0.053,161.6
2024-01-05T04:22:03,42.805,6.029,0.008,-0.043,-0.045,108.0,105.0,104.0,13.3,1505.2,348.9,-0.8,1.8,2471.593,13.29,0.043,169.5
2024-01-05T04:25:03,42.805,6.029,0.015,-0.018,0.002,108.0,107.0,104.0,13.4,1505.2,348.3,-0.8,1.8,2471.625,13.29,0.023,140.2
2024-01-05T04:28:03,42.805,6.029,0.032,-0.027,-0.025,108.0,107.0,104.0,13.3,1505.2,353.9,-0.8,1.8,2471.595,13.29,0.041,130.2
2024-01-05T04:31:03,42.805,6.029,0.022,-0.019,0.001,108.0,107.0,103.0,13.3,1505.2,341.5,-0.8,1.8,2471.609,13.29,0.029,130.8
2024-01-05T04:34:03,42.805,6.029,0.005,-0.005,-0.003,107.0,107.0,103.0,13.4,1505.2,351.0,-0.8,1.8,2471.584,13.29,0.007,135.0
2024-01-05T04:37:03,42.805,6.029,0.009,-0.056,-0.025,108.0,106.0,104.0,13.4,1505.2,0.0,-0.8,1.8,2471.574,13.29,0.056,170.9
2024-01-05T04:40:03,42.805,6.029,0.033,-0.04,-0.007,109.0,106.0,104.0,13.4,1505.2,347.7,-0.8,1.8,2471.553,13.29,0.051,140.5
2024-01-05T04:43:03,42.805,6.029,0.017,-0.042,-0.003,107.0,107.0,104.0,13.4,1505.2,349.5,-0.8,1.8,2471.578,13.29,0.045,158.0
2024-01-05T04:46:03,42.805,6.029,0.018,-0.043,-0.004,107.0,106.0,104.0,13.3,1505.2,355.2,-0.8,1.8,2471.557,13.29,0.046,157.3
2024-01-05T04:49:03,42.805,6.029,0.023,-0.064,0.007,107.0,107.0,103.0,13.4,1505.2,352.4,-0.8,1.8,2471.582,13.29,0.068,160.2
2024-01-05T04:52:03,42.805,6.029,-0.001,-0.014,-0.042,107.0,106.0,104.0,13.4,1505.2,342.0,-0.7,1.8,2471.547,13.29,0.014,184.1
2024-01-05T04:55:03,42.805,6.029,0.015,-0.025,0.017,107.0,107.0,104.0,13.3,1505.2,358.4,-0.7,1.8,2471.591,13.29,0.029,149.0
2024-01-05T04:58:03,42.805,6.029,0.012,-0.038,0.008,108.0,106.0,104.0,13.4,1505.2,356.7,-0.8,1.8,2471.54,13.29,0.039,162.5
2024-01-05T05:04:03,42.805,6.029,0.014,-0.029,-0.004,106.0,107.0,104.0,13.4,1505.2,346.7,-0.8,1.8,2471.604,13.29,0.032,154.2
2024-01-05T05:07:03,42.805,6.029,0.025,-0.038,-0.027,108.0,107.0,104.0,13.4,1505.2,355.7,-0.7,1.8,2471.562,13.29,0.045,146.7
2024-01-05T05:10:03,42.805,6.029,0.018,-0.021,-0.009,106.0,107.0,104.0,13.4,1505.2,351.2,-0.8,1.8,2471.612,13.29,0.027,139.4
2024-01-05T05:13:03,42.805,6.029,0.009,-0.027,-0.019,108.0,108.0,104.0,13.4,1505.2,346.1,-0.8,1.8,2471.576,13.29,0.028,161.6
2024-01-05T05:16:03,42.805,6.029,0.018,-0.03,-0.004,108.0,108.0,104.0,13.3,1505.2,343.3,-0.8,1.8,2471.61,13.29,0.034,149.0
2024-01-05T05:19:03,42.805,6.029,0.001,-0.044,-0.03,107.0,108.0,105.0,13.4,1505.2,357.5,-0.8,1.8,2471.578,13.29,0.044,178.7
2024-01-05T05:22:03,42.805,6.029,0.02,-0.042,-0.028,106.0,106.0,105.0,13.4,1505.2,353.4,-0.8,1.8,2471.55,13.29,0.046,154.5
2024-01-05T05:25:03,42.805,6.029,0.006,-0.02,-0.035,106.0,108.0,104.0,13.4,1505.2,341.3,-0.7,1.8,2471.583,13.29,0.02,163.3
2024-01-05T05:28:03,42.805,6.029,0.012,-0.048,0.014,108.0,107.0,104.0,13.4,1505.2,0.7,-0.8,1.8,2471.547,13.29,0.049,166.0
2024-01-05T05:31:03,42.805,6.029,0.014,-0.032,-0.026,107.0,106.0,104.0,13.3,1505.2,347.1,-0.7,1.8,2471.56,13.29,0.034,156.4
2024-01-05T05:34:03,42.805,6.029,0.0,-0.033,-0.019,108.0,105.0,104.0,13.3,1505.2,358.4,-0.7,1.8,2471.561,13.29,0.033,180.0
2024-01-05T05:37:03,42.805,6.029,0.008,-0.028,-0.002,108.0,107.0,104.0,13.4,1505.2,3.0,-0.7,1.8,2471.572,13.29,0.029,164.1
2024-01-05T05:40:03,42.805,6.029,0.007,-0.03,-0.027,107.0,106.0,104.0,13.4,1505.2,355.9,-0.8,1.8,2471.553,13.29,0.03,166.9
2024-01-05T05:43:03,42.805,6.029,0.0,-0.021,-0.032,106.0,107.0,104.0,13.3,1505.2,3.2,-0.8,1.8,2471.573,13.29,0.021,180.0
2024-01-05T05:46:03,42.805,6.029,0.008,-0.021,0.002,108.0,107.0,105.0,13.3,1505.2,344.6,-0.8,1.8,2471.522,13.29,0.022,159.1
2024-01-05T05:49:03,42.805,6.029,-0.003,-0.019,-0.048,108.0,107.0,104.0,13.3,1505.2,355.6,-0.8,1.8,2471.57,13.29,0.019,189.0
2024-01-05T05:52:03,42.805,6.029,0.015,-0.011,0.002,108.0,107.0,104.0,13.3,1505.2,343.5,-0.8,1.8,2471.582,13.29,0.018,126.3
2024-01-05T05:55:03,42.805,6.029,0.043,-0.024,-0.038,107.0,106.0,104.0,13.3,1505.2,346.3,-0.8,1.8,2471.548,13.29,0.049,119.2
2024-01-05T05:58:03,42.805,6.029,0.003,-0.034,-0.018,107.0,107.0,104.0,13.4,1505.2,356.5,-0.8,1.8,2471.523,13.29,0.034,175.0
2024-01-05T06:04:03,42.805,6.029,-0.006,-0.021,-0.017,108.0,107.0,104.0,13.3,1505.2,355.4,-0.7,1.8,2471.583,13.29,0.021,195.9
2024-01-05T06:07:03,42.805,6.029,0.011,-0.003,-0.017,108.0,105.0,104.0,13.4,1505.2,4.5,-0.7,1.8,2471.602,13.29,0.011,105.3
2024-01-05T06:10:03,42.805,6.029,0.031,-0.015,-0.031,107.0,107.0,104.0,13.4,1505.2,346.8,-0.8,1.8,2471.579,13.29,0.034,115.8
2024-01-05T06:13:03,42.805,6.029,0.012,-0.041,0.005,107.0,107.0,104.0,13.4,1505.2,353.3,-0.8,1.8,2471.585,13.29,0.042,163.7
2024-01-05T06:16:03,42.805,6.029,0.007,-0.015,-0.034,108.0,107.0,103.0,13.3,1505.2,344.2,-0.8,1.8,2471.572,13.29,0.016,155.0
2024-01-05T06:19:03,42.805,6.029,0.006,-0.023,0.005,106.0,107.0,105.0,13.3,1505.2,356.7,-0.8,1.8,2471.564,13.29,0.023,165.4
2024-01-05T06:22:03,42.805,6.029,-0.003,-0.004,-0.005,105.0,109.0,105.0,13.4,1505.2,2.8,-0.8,1.8,2471.566,13.29,0.005,216.9
2024-01-05T06:25:03,42.805,6.029,0.013,-0.011,-0.009,108.0,106.0,105.0,13.3,1505.2,348.0,-0.8,1.8,2471.583,13.29,0.017,130.2
2024-01-05T06:28:03,42.805,6.029,0.007,-0.029,-0.027,108.0,107.0,104.0,13.3,1505.2,356.7,-0.7,1.8,2471.527,13.29,0.029,166.4
2024-01-05T06:31:03,42.805,6.029,-0.008,-0.016,-0.038,107.0,107.0,103.0,13.3,1505.2,357.2,-0.8,1.8,2471.526,13.29,0.017,206.6
2024-01-05T06:34:03,42.805,6.029,0.003,-0.015,-0.002,107.0,107.0,104.0,13.3,1505.2,342.7,-0.7,1.8,2471.566,13.29,0.015,168.7
2024-01-05T06:37:03,42.805,6.029,0.007,0.0,0.0,108.0,106.0,104.0,13.4,1505.2,356.2,-0.8,1.8,2471.511,13.29,0.007,90.0
2024-01-05T06:40:03,42.805,6.029,0.019,-0.04,-0.047,107.0,106.0,104.0,13.4,1505.2,348.3,-0.7,1.8,2471.537,13.29,0.044,154.6
2024-01-05T06:43:03,42.805,6.029,-0.005,-0.022,0.012,108.0,107.0,104.0,13.4,1505.2,2.2,-0.7,1.8,2471.574,13.29,0.022,192.8
2024-01-05T06:46:03,42.805,6.029,0.016,-0.027,-0.032,107.0,107.0,104.0,13.4,1505.2,342.5,-0.8,1.8,2471.548,13.29,0.031,149.3
2024-01-05T06:49:03,42.805,6.029,0.018,-0.006,-0.013,107.0,106.0,105.0,13.3,1505.2,354.2,-0.8,1.8,2471.56,13.29,0.018,108.4
2024-01-05T06:52:03,42.805,6.029,0.022,-0.023,0.003,108.0,107.0,105.0,13.4,1505.2,351.9,-0.7,1.8,2471.586,13.29,0.031,136.3
2024-01-05T06:55:03,42.805,6.029,0.006,-0.015,-0.016,108.0,105.0,104.0,13.4,1505.2,348.1,-0.8,1.8,2471.537,13.29,0.016,158.2
2024-01-05T06:58:03,42.805,6.029,0.008,-0.017,-0.005,108.0,107.0,104.0,13.3,1505.2,3.6,-0.8,1.8,2471.583,13.29,0.018,154.8
2024-01-05T07:04:03,42.805,6.029,0.008,-0.014,-0.013,107.0,107.0,104.0,13.4,1505.2,353.6,-0.8,1.8,2471.62,13.29,0.016,150.3
2024-01-05T07:07:03,42.805,6.029,-0.001,-0.002,0.01,108.0,107.0,104.0,13.4,1505.2,2.3,-0.8,1.8,2471.573,13.29,0.002,206.6
2024-01-05T07:10:03,42.805,6.029,0.003,0.0,-0.027,107.0,108.0,106.0,13.4,1505.2,340.8,-0.8,1.8,2471.583,13.29,0.003,90.0
2024-01-05T07:13:03,42.805,6.029,0.0,-0.013,-0.012,108.0,108.0,104.0,13.4,1505.2,349.2,-0.8,1.8,2471.606,13.29,0.013,180.0
2024-01-05T07:16:03,42.805,6.029,0.011,0.002,-0.021,106.0,107.0,105.0,13.4,1505.2,356.7,-0.8,1.8,2471.552,13.29,0.011,79.7
2024-01-05T07:19:03,42.805,6.029,0.017,-0.01,0.008,107.0,106.0,104.0,13.4,1505.2,346.8,-0.7,1.8,2471.525,13.29,0.019,120.5
2024-01-05T07:22:03,42.805,6.029,-0.007,-0.008,-0.008,108.0,107.0,104.0,13.4,1505.2,1.6,-0.8,1.8,2471.579,13.29,0.01,221.2
2024-01-05T07:25:03,42.805,6.029,0.005,0.0,0.015,106.0,107.0,105.0,13.4,1505.2,343.7,-0.7,1.8,2471.57,13.29,0.005,90.0
2024-01-05T07:28:03,42.805,6.029,0.01,0.0,0.005,106.0,107.0,104.0,13.4,1505.2,348.9,-0.8,1.8,2471.535,13.29,0.01,90.0
2024-01-05T07:31:03,42.805,6.029,0.007,0.0,-0.039,108.0,106.0,105.0,13.4,1505.2,357.1,-0.8,1.8,2471.553,13.29,0.007,90.0
2024-01-05T07:34:03,42.805,6.029,0.023,-0.02,-0.014,106.0,107.0,105.0,13.3,1505.2,340.8,-0.7,1.8,2471.566,13.29,0.03,131.0
2024-01-05T07:37:03,42.805,6.029,-0.003,-0.005,-0.042,106.0,106.0,104.0,13.4,1505.2,357.5,-0.8,1.8,2471.575,13.29,0.005,211.0
2024-01-05T07:40:03,42.805,6.029,0.013,-0.011,-0.025,108.0,107.0,105.0,13.4,1505.2,2.4,-0.8,1.8,2471.561,13.29,0.017,130.2
2024-01-05T07:43:03,42.805,6.029,0.005,0.0,-0.036,108.0,107.0,104.0,13.4,1505.2,340.4,-0.7,1.8,2471.542,13.29,0.005,90.0
2024-01-05T07:46:03,42.805,6.029,0.022,-0.014,-0.016,108.0,106.0,104.0,13.4,1505.2,355.5,-0.8,1.8,2471.543,13.29,0.026,122.5
2024-01-05T07:49:03,42.805,6.029,0.013,0.0,-0.027,107.0,106.0,104.0,13.4,1505.2,345.9,-0.7,1.8,2471.572,13.29,0.013,90.0
2024-01-05T07:52:03,42.805,6.029,0.005,-0.004,0.009,107.0,106.0,104.0,13.4,1505.2,352.7,-0.7,1.8,2471.544,13.29,0.006,128.7
2024-01-05T07:55:03,42.805,6.029,-0.008,0.005,-0.011,109.0,106.0,104.0,13.3,1505.2,350.2,-0.8,1.8,2471.546,13.29,0.009,302.0
2024-01-05T07:58:03,42.805,6.029,-0.012,-0.015,-0.032,107.0,106.0,104.0,13.4,1505.2,0.0,-0.8,1.8,2471.544,13.29,0.019,218.7
2024-01-05T08:04:03,42.805,6.029,-0.015,0.005,-0.083,107.0,106.0,104.0,13.4,1505.2,350.0,-0.8,1.8,2471.606,13.29,0.015,288.4
2024-01-05T08:07:03,42.805,6.029,-0.001,0.002,-0.001,108.0,107.0,103.0,13.4,1505.2,2.2,-0.7,1.8,2471.599,13.29,0.002,333.4
2024-01-05T08:10:03,42.805,6.029,0.017,0.002,-0.026,110.0,106.0,105.0,13.4,1505.2,343.9,-0.8,1.8,2471.569,13.29,0.017,83.3
2024-01-05T08:13:03,42.805,6.029,0.0,0.007,-0.037,108.0,107.0,103.0,13.4,1505.2,344.2,-0.8,1.8,2471.549,13.29,0.007,0.0
2024-01-05T08:16:03,42.805,6.029,0.007,-0.014,-0.048,108.0,105.0,105.0,13.4,1505.2,348.8,-0.8,1.8,2471.576,13.29,0.015,153.4
2024-01-05T08:19:03,42.805,6.029,0.01,0.0,-0.021,106.0,106.0,104.0,13.4,1505.2,4.4,-0.8,1.8,2471.528,13.29,0.01,90.0
2024-01-05T08:22:03,42.805,6.029,0.023,-0.008,-0.016,110.0,105.0,105.0,13.3,1505.2,343.3,-0.8,1.8,2471.573,13.29,0.024,109.2
2024-01-05T08:25:03,42.805,6.029,0.021,-0.001,-0.03,108.0,107.0,104.0,13.4,1505.2,351.8,-0.8,1.8,2471.56,13.29,0.021,92.7
2024-01-05T08:28:03,42.805,6.029,0.007,-0.016,-0.001,109.0,107.0,106.0,13.4,1505.2,347.3,-0.8,1.8,2471.589,13.29,0.017,156.4
2024-01-05T08:31:03,42.805,6.029,0.01,0.003,-0.006,106.0,108.0,105.0,13.4,1505.2,357.5,-0.8,1.8,2471.555,13.29,0.01,73.3
2024-01-05T08:34:03,42.805,6.029,0.013,0.001,0.029,105.0,106.0,106.0,13.4,1505.2,3.0,-0.7,1.9,2471.563,13.29,0.013,85.6
2024-01-05T08:37:03,42.805,6.029,0.011,0.015,-0.016,107.0,106.0,105.0,13.3,1505.2,347.5,-0.8,1.8,2471.568,13.29,0.018,36.3
2024-01-05T08:40:03,42.805,6.029,0.0,-0.012,-0.014,108.0,107.0,104.0,13.4,1505.2,359.2,-0.8,1.8,2471.573,13.29,0.012,180.0
2024-01-05T08:43:03,42.805,6.029,-0.003,0.0,-0.007,107.0,106.0,104.0,13.4,1505.2,353.6,-0.8,1.8,2471.532,13.29,0.003,270.0
2024-01-05T08:46:03,42.805,6.029,0.024,0.001,-0.032,108.0,106.0,105.0,13.3,1505.2,348.1,-0.7,1.8,2471.555,13.29,0.024,87.6
2024-01-05T08:49:03,42.805,6.029,0.004,0.001,-0.028,107.0,107.0,104.0,13.4,1505.2,358.4,-0.8,1.8,2471.588,13.29,0.004,76.0
2024-01-05T08:52:03,42.805,6.029,0.008,-0.018,-0.02,109.0,107.0,104.0,13.4,1505.2,4.6,-0.8,1.8,2471.532,13.29,0.019,156.0
2024-01-05T08:55:03,42.805,6.029,-0.008,-0.006,-0.015,107.0,106.0,104.0,13.3,1505.2,343.9,-0.8,1.8,2471.552,13.29,0.01,233.1
2024-01-05T08:58:03,42.805,6.029,0.01,0.0,-0.021,107.0,108.0,106.0,13.3,1505.2,348.1,-0.8,1.8,2471.58,13.29,0.01,90.0
2024-01-05T09:04:03,42.805,6.029,-0.004,0.019,-0.012,107.0,106.0,104.0,13.4,1505.2,342.8,-0.8,1.8,2471.615,13.29,0.019,348.1
2024-01-05T09:07:03,42.805,6.029,0.019,-0.001,-0.008,107.0,107.0,105.0,13.4,1505.2,348.8,-0.8,1.8,2471.617,13.29,0.019,93.0
2024-01-05T09:10:03,42.805,6.029,0.008,-0.011,-0.024,106.0,107.0,104.0,13.3,1505.2,356.6,-0.8,1.8,2471.62,13.29,0.013,144.0
2024-01-05T09:13:03,42.805,6.029,0.0,-0.004,-0.015,107.0,108.0,103.0,13.4,1505.2,3.2,-0.8,1.8,2471.596,13.29,0.004,180.0
2024-01-05T09:16:03,42.805,6.029,-0.011,0.006,-0.04,106.0,108.0,104.0,13.3,1505.2,342.9,-0.8,1.8,2471.649,13.29,0.012,298.6
2024-01-05T09:19:03,42.805,6.029,0.0,-0.003,-0.008,107.0,105.0,104.0,13.4,1505.2,357.6,-0.8,1.8,2471.627,13.29,0.003,180.0
2024-01-05T09:22:03,42.805,6.029,0.015,0.0,-0.039,107.0,106.0,105.0,13.4,1505.2,355.3,-0.8,1.8,2471.595,13.29,0.015,90.0
2024-01-05T09:25:03,42.805,6.029,-0.001,0.0,0.003,106.0,107.0,104.0,13.4,1505.2,356.8,-0.7,1.8,2471.591,13.29,0.001,270.0
2024-01-05T09:28:03,42.805,6.029,0.002,0.001,-0.012,107.0,107.0,104.0,13.4,1505.2,357.1,-0.8,1.8,2471.551,13.29,0.002,63.4
2024-01-05T09:31:03,42.805,6.029,0.016,0.004,-0.024,107.0,107.0,104.0,13.4,1505.2,343.7,-0.7,1.8,2471.6,13.29,0.016,76.0
2024-01-05T09:34:03,42.805,6.029,0.015,0.002,-0.04,107.0,106.0,105.0,13.4,1505.2,354.7,-0.7,1.8,2471.623,13.29,0.015,82.4
2024-01-05T09:37:03,42.805,6.029,0.008,-0.008,0.005,106.0,107.0,105.0,13.4,1505.2,353.4,-0.8,1.8,2471.557,13.29,0.011,135.0
2024-01-05T09:40:03,42.805,6.029,0.019,-0.012,-0.019,107.0,107.0,104.0,13.4,1505.2,350.7,-0.8,1.8,2471.575,13.29,0.022,122.3
2024-01-05T09:43:03,42.805,6.029,-0.01,0.0,-0.027,106.0,106.0,104.0,13.4,1505.2,357.5,-0.8,1.8,2471.575,13.29,0.01,270.0
2024-01-05T09:46:03,42.805,6.029,0.013,0.015,-0.018,107.0,106.0,104.0,13.3,1505.2,350.7,-0.7,1.8,2471.624,13.29,0.019,40.9
2024-01-05T09:49:03,42.805,6.029,0.02,0.005,-0.026,107.0,106.0,105.0,13.4,1505.2,355.9,-0.7,1.8,2471.574,13.29,0.02,76.0
2024-01-05T09:52:03,42.805,6.029,0.017,-0.015,0.006,106.0,107.0,104.0,13.3,1505.2,356.3,-0.7,1.8,2471.628,13.29,0.022,131.4
2024-01-05T09:55:03,42.805,6.029,-0.001,0.0,-0.022,106.0,108.0,105.0,13.4,1505.2,343.6,-0.7,1.8,2471.575,13.29,0.001,270.0
2024-01-05T09:58:03,42.805,6.029,0.0,-0.004,-0.037,106.0,107.0,105.0,13.4,1505.2,357.5,-0.8,1.8,2471.589,13.29,0.004,180.0